Time,TemperatureF,DewpointF,PressureIn,WindDirection,WindDirectionDegrees,WindSpeedMPH,WindSpeedGustMPH,Humidity,HourlyPrecipIn,Conditions,Clouds,dailyrainin,SoftwareType,DateUTC
2013-04-17 00:00:00,62.7,55.0,30.16,NE,39,1.0,1.0,76,0.00,,---,0.00,VWS V14.01,2013-04-17 04:00:00,
2013-04-17 00:05:00,62.6,54.9,30.16,NE,46,1.0,1.0,76,0.00,,---,0.00,VWS V14.01,2013-04-17 04:05:00,
2013-04-17 00:10:00,62.8,55.1,30.15,NE,48,0.0,1.0,76,0.00,,---,0.00,VWS V14.01,2013-04-17 04:10:00,
2013-04-17 00:15:00,62.6,54.9,30.16,NE,47,1.0,1.0,76,0.00,,---,0.00,VWS V14.01,2013-04-17 04:15:00,
2013-04-17 00:20:00,62.3,54.7,30.16,NE,46,1.0,1.0,76,0.00,,---,0.00,VWS V14.01,2013-04-17 04:20:00,
2013-04-17 00:25:00,62.0,54.7,30.16,NE,46,1.0,1.0,77,0.00,,---,0.00,VWS V14.01,2013-04-17 04:25:00,
2013-04-17 00:30:00,62.3,55.0,30.15,NE,50,0.0,1.0,77,0.00,,---,0.00,VWS V14.01,2013-04-17 04:30:00,
2013-04-17 00:35:00,62.6,55.3,30.15,NE,50,0.0,0.0,77,0.00,,---,0.00,VWS V14.01,2013-04-17 04:35:00,
2013-04-17 00:40:00,63.1,55.4,30.15,North,11,1.0,1.0,76,0.00,,---,0.00,VWS V14.01,2013-04-17 04:40:00,
2013-04-17 00:45:00,62.9,55.2,30.15,NNE,22,0.0,0.0,76,0.00,,---,0.00,VWS V14.01,2013-04-17 04:45:00,
2013-04-17 00:50:00,62.6,54.9,30.15,NNE,22,1.0,1.0,76,0.00,,---,0.00,VWS V14.01,2013-04-17 04:50:00,
2013-04-17 00:55:00,62.5,54.8,30.16,NNE,22,1.0,1.0,76,0.00,,---,0.00,VWS V14.01,2013-04-17 04:55:00,
2013-04-17 01:00:00,62.5,55.2,30.16,NNE,22,1.0,1.0,77,0.00,,---,0.00,VWS V14.01,2013-04-17 05:00:00,
2013-04-17 01:05:00,62.4,55.1,30.16,NNE,22,1.0,1.0,77,0.00,,---,0.00,VWS V14.01,2013-04-17 05:05:00,
2013-04-17 01:10:00,62.3,55.0,30.16,NE,54,1.0,2.0,77,0.00,,---,0.00,VWS V14.01,2013-04-17 05:10:00,
2013-04-17 01:15:00,62.4,55.1,30.15,NE,54,0.0,0.0,77,0.00,,---,0.00,VWS V14.01,2013-04-17 05:15:00,
2013-04-17 01:20:00,62.4,55.1,30.15,North,5,1.0,2.0,77,0.00,,---,0.00,VWS V14.01,2013-04-17 05:20:00,
2013-04-17 01:25:00,62.4,55.1,30.15,ENE,72,1.0,2.0,77,0.00,,---,0.00,VWS V14.01,2013-04-17 05:25:00,
2013-04-17 01:30:00,62.4,55.1,30.15,ENE,71,1.0,1.0,77,0.00,,---,0.00,VWS V14.01,2013-04-17 05:30:00,
2013-04-17 01:35:00,62.4,55.1,30.15,ENE,71,1.0,1.0,77,0.00,,---,0.00,VWS V14.01,2013-04-17 05:35:00,
2013-04-17 01:40:00,62.2,54.9,30.14,ENE,70,1.0,2.0,77,0.00,,---,0.00,VWS V14.01,2013-04-17 05:40:00,
2013-04-17 01:45:00,62.1,54.8,30.14,ENE,70,2.0,2.0,77,0.00,,---,0.00,VWS V14.01,2013-04-17 05:45:00,
2013-04-17 01:50:00,62.0,54.7,30.14,NE,34,1.0,1.0,77,0.00,,---,0.00,VWS V14.01,2013-04-17 05:50:00,
2013-04-17 01:55:00,61.8,54.9,30.14,NE,34,0.0,1.0,78,0.00,,---,0.00,VWS V14.01,2013-04-17 05:55:00,
2013-04-17 02:00:00,61.5,54.6,30.14,NE,34,1.0,1.0,78,0.00,,---,0.00,VWS V14.01,2013-04-17 06:00:00,
2013-04-17 02:05:00,61.5,54.9,30.13,NE,36,1.0,1.0,79,0.00,,---,0.00,VWS V14.01,2013-04-17 06:05:00,
2013-04-17 02:10:00,61.5,54.9,30.14,NE,36,1.0,1.0,79,0.00,,---,0.00,VWS V14.01,2013-04-17 06:10:00,
2013-04-17 02:15:00,61.5,54.9,30.14,NE,39,0.0,0.0,79,0.00,,---,0.00,VWS V14.01,2013-04-17 06:15:00,
2013-04-17 02:20:00,61.7,55.1,30.14,NE,39,1.0,1.0,79,0.00,,---,0.00,VWS V14.01,2013-04-17 06:20:00,
2013-04-17 02:25:00,61.8,55.2,30.14,NE,39,0.0,1.0,79,0.00,,---,0.00,VWS V14.01,2013-04-17 06:25:00,
2013-04-17 02:30:00,62.0,55.1,30.14,NE,39,1.0,1.0,78,0.00,,---,0.00,VWS V14.01,2013-04-17 06:30:00,
2013-04-17 02:35:00,62.1,55.2,30.14,NE,39,0.0,1.0,78,0.00,,---,0.00,VWS V14.01,2013-04-17 06:35:00,
2013-04-17 02:40:00,61.8,54.9,30.14,NE,39,1.0,1.0,78,0.00,,---,0.00,VWS V14.01,2013-04-17 06:40:00,
2013-04-17 02:45:00,61.3,54.7,30.14,NE,39,1.0,1.0,79,0.00,,---,0.00,VWS V14.01,2013-04-17 06:45:00,
2013-04-17 02:50:00,61.0,54.8,30.15,NE,39,1.0,1.0,80,0.00,,---,0.00,VWS V14.01,2013-04-17 06:50:00,
2013-04-17 02:55:00,61.0,54.8,30.14,NE,39,1.0,1.0,80,0.00,,---,0.00,VWS V14.01,2013-04-17 06:55:00,
2013-04-17 03:00:00,61.4,55.2,30.15,NE,41,0.0,1.0,80,0.00,,---,0.00,VWS V14.01,2013-04-17 07:00:00,
2013-04-17 03:05:00,61.7,55.1,30.15,NE,41,1.0,1.0,79,0.00,,---,0.00,VWS V14.01,2013-04-17 07:05:00,
2013-04-17 03:10:00,62.0,55.4,30.15,NE,41,0.0,0.0,79,0.00,,---,0.00,VWS V14.01,2013-04-17 07:10:00,
2013-04-17 03:15:00,62.1,55.2,30.15,NE,41,1.0,1.0,78,0.00,,---,0.00,VWS V14.01,2013-04-17 07:15:00,
2013-04-17 03:20:00,62.1,55.2,30.15,NE,41,1.0,1.0,78,0.00,,---,0.00,VWS V14.01,2013-04-17 07:20:00,
2013-04-17 03:25:00,62.0,55.1,30.15,NE,41,1.0,1.0,78,0.00,,---,0.00,VWS V14.01,2013-04-17 07:25:00,
2013-04-17 03:30:00,61.6,55.0,30.15,NE,41,1.0,1.0,79,0.00,,---,0.00,VWS V14.01,2013-04-17 07:30:00,
2013-04-17 03:35:00,61.4,54.8,30.15,NE,41,1.0,1.0,79,0.00,,---,0.00,VWS V14.01,2013-04-17 07:35:00,
2013-04-17 03:40:00,61.1,54.9,30.15,NE,41,1.0,1.0,80,0.00,,---,0.00,VWS V14.01,2013-04-17 07:40:00,
2013-04-17 03:45:00,60.9,54.7,30.15,NE,41,0.0,0.0,80,0.00,,---,0.00,VWS V14.01,2013-04-17 07:45:00,
2013-04-17 03:50:00,60.8,54.6,30.15,NE,41,0.0,0.0,80,0.00,,---,0.00,VWS V14.01,2013-04-17 07:50:00,
2013-04-17 03:55:00,60.7,54.8,30.15,NE,41,0.0,1.0,81,0.00,,---,0.00,VWS V14.01,2013-04-17 07:55:00,
2013-04-17 04:00:00,60.5,54.7,30.14,NE,41,1.0,1.0,81,0.00,,---,0.00,VWS V14.01,2013-04-17 08:00:00,
2013-04-17 04:05:00,60.4,54.9,30.15,NE,41,1.0,1.0,82,0.00,,---,0.00,VWS V14.01,2013-04-17 08:05:00,
2013-04-17 04:10:00,60.6,54.8,30.15,NE,41,1.0,1.0,81,0.00,,---,0.00,VWS V14.01,2013-04-17 08:10:00,
2013-04-17 04:15:00,60.5,54.7,30.15,NE,41,0.0,0.0,81,0.00,,---,0.00,VWS V14.01,2013-04-17 08:15:00,
2013-04-17 04:20:00,60.4,54.9,30.15,NE,41,1.0,1.0,82,0.00,,---,0.00,VWS V14.01,2013-04-17 08:20:00,
2013-04-17 04:25:00,60.3,54.8,30.14,NE,41,1.0,1.0,82,0.00,,---,0.00,VWS V14.01,2013-04-17 08:25:00,
2013-04-17 04:30:00,60.3,54.8,30.14,NE,41,0.0,1.0,82,0.00,,---,0.00,VWS V14.01,2013-04-17 08:30:00,
2013-04-17 04:35:00,60.2,54.7,30.14,NE,41,0.0,1.0,82,0.00,,---,0.00,VWS V14.01,2013-04-17 08:35:00,
2013-04-17 04:40:00,60.3,54.8,30.14,NE,41,0.0,0.0,82,0.00,,---,0.00,VWS V14.01,2013-04-17 08:40:00,
2013-04-17 04:45:00,60.2,54.7,30.14,NE,41,0.0,0.0,82,0.00,,---,0.00,VWS V14.01,2013-04-17 08:45:00,
2013-04-17 04:50:00,60.4,54.9,30.14,NE,41,0.0,0.0,82,0.00,,---,0.00,VWS V14.01,2013-04-17 08:50:00,
2013-04-17 04:55:00,60.6,55.1,30.14,NE,41,0.0,0.0,82,0.00,,---,0.00,VWS V14.01,2013-04-17 08:55:00,
2013-04-17 05:00:00,60.5,55.0,30.14,NE,41,1.0,1.0,82,0.00,,---,0.00,VWS V14.01,2013-04-17 09:00:00,
2013-04-17 05:05:00,60.3,54.8,30.14,NE,41,1.0,1.0,82,0.00,,---,0.00,VWS V14.01,2013-04-17 09:05:00,
2013-04-17 05:10:00,60.1,54.9,30.14,NE,41,0.0,0.0,83,0.00,,---,0.00,VWS V14.01,2013-04-17 09:10:00,
2013-04-17 05:15:00,60.0,54.8,30.14,NE,41,0.0,0.0,83,0.00,,---,0.00,VWS V14.01,2013-04-17 09:15:00,
2013-04-17 05:20:00,60.1,54.9,30.13,NE,41,0.0,0.0,83,0.00,,---,0.00,VWS V14.01,2013-04-17 09:20:00,
2013-04-17 05:25:00,60.1,54.9,30.13,NE,41,0.0,0.0,83,0.00,,---,0.00,VWS V14.01,2013-04-17 09:25:00,
2013-04-17 05:30:00,60.0,54.8,30.14,NE,41,0.0,0.0,83,0.00,,---,0.00,VWS V14.01,2013-04-17 09:30:00,
2013-04-17 05:35:00,60.0,55.2,30.14,NE,41,0.0,0.0,84,0.00,,---,0.00,VWS V14.01,2013-04-17 09:35:00,
2013-04-17 05:40:00,60.1,55.3,30.14,NE,41,0.0,0.0,84,0.00,,---,0.00,VWS V14.01,2013-04-17 09:40:00,
2013-04-17 05:45:00,60.4,55.5,30.14,NE,41,0.0,0.0,84,0.00,,---,0.00,VWS V14.01,2013-04-17 09:45:00,
2013-04-17 05:50:00,60.9,55.7,30.15,NE,41,1.0,2.0,83,0.00,,---,0.00,VWS V14.01,2013-04-17 09:50:00,
2013-04-17 05:55:00,61.2,55.7,30.15,NE,41,1.0,1.0,82,0.00,,---,0.00,VWS V14.01,2013-04-17 09:55:00,
2013-04-17 06:00:00,61.5,56.0,30.15,NE,41,1.0,1.0,82,0.00,,---,0.00,VWS V14.01,2013-04-17 10:00:00,
2013-04-17 06:05:00,61.7,56.5,30.16,North,353,1.0,1.0,83,0.00,,---,0.00,VWS V14.01,2013-04-17 10:05:00,
2013-04-17 06:10:00,61.8,56.9,30.16,NW,305,1.0,2.0,84,0.00,,---,0.00,VWS V14.01,2013-04-17 10:10:00,
2013-04-17 06:15:00,61.3,57.1,30.15,East,84,1.0,2.0,86,0.00,,---,0.00,VWS V14.01,2013-04-17 10:15:00,
2013-04-17 06:20:00,60.7,57.4,30.15,East,84,1.0,1.0,89,0.00,,---,0.00,VWS V14.01,2013-04-17 10:20:00,
2013-04-17 06:25:00,60.1,57.2,30.15,ENE,71,0.0,1.0,90,0.00,,---,0.00,VWS V14.01,2013-04-17 10:25:00,
2013-04-17 06:30:00,59.8,56.9,30.16,ENE,71,0.0,0.0,90,0.00,,---,0.00,VWS V14.01,2013-04-17 10:30:00,
2013-04-17 06:35:00,59.6,57.0,30.16,ENE,60,0.0,0.0,91,0.01,,---,0.01,VWS V14.01,2013-04-17 10:35:00,
2013-04-17 06:40:00,59.3,56.7,30.16,ENE,60,1.0,1.0,91,0.01,,---,0.01,VWS V14.01,2013-04-17 10:40:00,
2013-04-17 06:45:00,59.1,56.8,30.16,ENE,60,1.0,1.0,92,0.01,,---,0.01,VWS V14.01,2013-04-17 10:45:00,
2013-04-17 06:50:00,59.0,56.7,30.16,ENE,60,1.0,1.0,92,0.01,,---,0.01,VWS V14.01,2013-04-17 10:50:00,
2013-04-17 06:55:00,58.9,56.9,30.17,ENE,58,1.0,2.0,93,0.01,,---,0.01,VWS V14.01,2013-04-17 10:55:00,
2013-04-17 07:00:00,58.9,56.3,30.17,NW,323,0.0,1.0,91,0.01,,---,0.01,VWS V14.01,2013-04-17 11:00:00,
2013-04-17 07:05:00,59.4,57.1,30.17,NNW,333,1.0,1.0,92,0.02,,---,0.02,VWS V14.01,2013-04-17 11:05:00,
2013-04-17 07:10:00,59.4,57.1,30.19,NE,54,0.0,1.0,92,0.02,,---,0.02,VWS V14.01,2013-04-17 11:10:00,
2013-04-17 07:15:00,59.1,57.1,30.18,NE,53,0.0,0.0,93,0.05,,---,0.05,VWS V14.01,2013-04-17 11:15:00,
2013-04-17 07:20:00,59.0,57.0,30.18,SW,222,2.0,2.0,93,0.09,,---,0.09,VWS V14.01,2013-04-17 11:20:00,
2013-04-17 07:25:00,58.8,57.1,30.17,WSW,240,0.0,1.0,94,0.12,,---,0.12,VWS V14.01,2013-04-17 11:25:00,
2013-04-17 07:30:00,58.5,56.8,30.17,WSW,250,0.0,0.0,94,0.13,,---,0.13,VWS V14.01,2013-04-17 11:30:00,
2013-04-17 07:35:00,58.3,56.9,30.17,WSW,250,0.0,0.0,95,0.14,,---,0.14,VWS V14.01,2013-04-17 11:35:00,
2013-04-17 07:40:00,58.2,56.8,30.17,WSW,250,0.0,1.0,95,0.13,,---,0.14,VWS V14.01,2013-04-17 11:40:00,
2013-04-17 07:45:00,58.1,56.7,30.17,WSW,250,0.0,0.0,95,0.13,,---,0.14,VWS V14.01,2013-04-17 11:45:00,
2013-04-17 07:50:00,58.1,57.0,30.16,WSW,250,0.0,1.0,96,0.13,,---,0.14,VWS V14.01,2013-04-17 11:50:00,
2013-04-17 07:55:00,58.1,57.0,30.17,WSW,255,0.0,0.0,96,0.13,,---,0.14,VWS V14.01,2013-04-17 11:55:00,
2013-04-17 08:00:00,58.0,56.9,30.17,North,357,1.0,1.0,96,0.13,,---,0.14,VWS V14.01,2013-04-17 12:00:00,
2013-04-17 08:05:00,58.1,57.0,30.17,WNW,294,0.0,1.0,96,0.12,,---,0.14,VWS V14.01,2013-04-17 12:05:00,
2013-04-17 08:10:00,58.2,57.1,30.17,NE,36,1.0,1.0,96,0.12,,---,0.14,VWS V14.01,2013-04-17 12:10:00,
2013-04-17 08:15:00,58.3,57.2,30.17,NE,34,0.0,1.0,96,0.09,,---,0.14,VWS V14.01,2013-04-17 12:15:00,
2013-04-17 08:20:00,58.4,57.3,30.16,NE,34,0.0,0.0,96,0.06,,---,0.14,VWS V14.01,2013-04-17 12:20:00,
2013-04-17 08:25:00,58.6,57.2,30.17,NE,34,0.0,1.0,95,0.03,,---,0.14,VWS V14.01,2013-04-17 12:25:00,
2013-04-17 08:30:00,58.7,57.3,30.17,NW,308,3.0,4.0,95,0.01,,---,0.14,VWS V14.01,2013-04-17 12:30:00,
2013-04-17 08:35:00,59.0,57.0,30.17,ENE,57,1.0,2.0,93,0.00,,---,0.14,VWS V14.01,2013-04-17 12:35:00,
2013-04-17 08:40:00,59.2,57.2,30.17,NE,55,0.0,1.0,93,0.00,,---,0.14,VWS V14.01,2013-04-17 12:40:00,
2013-04-17 08:45:00,59.1,57.4,30.17,NE,56,1.0,1.0,94,0.00,,---,0.14,VWS V14.01,2013-04-17 12:45:00,
2013-04-17 08:50:00,59.3,57.6,30.17,NE,55,0.0,1.0,94,0.00,,---,0.14,VWS V14.01,2013-04-17 12:50:00,
2013-04-17 08:55:00,59.7,58.0,30.17,West,280,0.0,1.0,94,0.00,,---,0.14,VWS V14.01,2013-04-17 12:55:00,
2013-04-17 09:00:00,60.0,58.6,30.17,West,278,0.0,0.0,95,0.00,,---,0.14,VWS V14.01,2013-04-17 13:00:00,
2013-04-17 09:05:00,60.2,58.8,30.17,West,278,0.0,0.0,95,0.00,,---,0.14,VWS V14.01,2013-04-17 13:05:00,
2013-04-17 09:10:00,60.0,58.6,30.18,West,280,0.0,0.0,95,0.00,,---,0.14,VWS V14.01,2013-04-17 13:10:00,
2013-04-17 09:15:00,60.0,58.6,30.18,West,266,0.0,0.0,95,0.00,,---,0.14,VWS V14.01,2013-04-17 13:15:00,
2013-04-17 09:20:00,60.0,58.3,30.17,West,276,2.0,2.0,94,0.00,,---,0.14,VWS V14.01,2013-04-17 13:20:00,
2013-04-17 09:25:00,60.1,58.4,30.17,West,277,0.0,0.0,94,0.00,,---,0.14,VWS V14.01,2013-04-17 13:25:00,
2013-04-17 09:30:00,60.2,58.5,30.18,West,277,0.0,0.0,94,0.00,,---,0.14,VWS V14.01,2013-04-17 13:30:00,
2013-04-17 09:35:00,60.3,58.9,30.17,West,277,1.0,1.0,95,0.00,,---,0.14,VWS V14.01,2013-04-17 13:35:00,
2013-04-17 09:40:00,60.4,58.7,30.17,West,276,0.0,0.0,94,0.00,,---,0.14,VWS V14.01,2013-04-17 13:40:00,
2013-04-17 09:45:00,60.6,59.2,30.17,West,266,0.0,0.0,95,0.00,,---,0.14,VWS V14.01,2013-04-17 13:45:00,
2013-04-17 09:50:00,60.7,59.3,30.16,West,266,0.0,0.0,95,0.00,,---,0.14,VWS V14.01,2013-04-17 13:50:00,
2013-04-17 09:55:00,60.9,59.5,30.16,West,266,0.0,0.0,95,0.00,,---,0.14,VWS V14.01,2013-04-17 13:55:00,
2013-04-17 10:00:00,61.3,59.6,30.16,West,266,0.0,0.0,94,0.00,,---,0.14,VWS V14.01,2013-04-17 14:00:00,
2013-04-17 10:05:00,61.6,59.6,30.16,West,266,0.0,0.0,93,0.00,,---,0.14,VWS V14.01,2013-04-17 14:05:00,
2013-04-17 10:10:00,61.9,58.9,30.16,West,269,0.0,0.0,90,0.00,,---,0.14,VWS V14.01,2013-04-17 14:10:00,
2013-04-17 10:15:00,62.5,59.2,30.16,WSW,243,0.0,1.0,89,0.00,,---,0.14,VWS V14.01,2013-04-17 14:15:00,
2013-04-17 10:20:00,63.0,59.4,30.16,West,281,2.0,2.0,88,0.00,,---,0.14,VWS V14.01,2013-04-17 14:20:00,
2013-04-17 10:25:00,63.6,59.0,30.16,SSW,205,1.0,1.0,85,0.00,,---,0.14,VWS V14.01,2013-04-17 14:25:00,
2013-04-17 10:30:00,64.0,59.1,30.16,SSW,205,0.0,0.0,84,0.00,,---,0.14,VWS V14.01,2013-04-17 14:30:00,
2013-04-17 10:35:00,64.3,60.0,30.16,SSW,205,0.0,0.0,86,0.00,,---,0.14,VWS V14.01,2013-04-17 14:35:00,
2013-04-17 10:40:00,64.4,60.1,30.16,SSW,205,0.0,0.0,86,0.00,,---,0.14,VWS V14.01,2013-04-17 14:40:00,
2013-04-17 10:45:00,64.5,59.9,30.16,SSW,205,0.0,0.0,85,0.00,,---,0.14,VWS V14.01,2013-04-17 14:45:00,
2013-04-17 10:50:00,64.7,60.4,30.16,SSW,206,0.0,0.0,86,0.00,,---,0.14,VWS V14.01,2013-04-17 14:50:00,
2013-04-17 10:55:00,64.6,59.7,30.17,East,98,1.0,1.0,84,0.00,,---,0.14,VWS V14.01,2013-04-17 14:55:00,
2013-04-17 11:00:00,64.0,59.4,30.17,WSW,257,3.0,3.0,85,0.00,,---,0.14,VWS V14.01,2013-04-17 15:00:00,
2013-04-17 11:05:00,63.7,59.4,30.17,West,274,1.0,2.0,86,0.00,,---,0.14,VWS V14.01,2013-04-17 15:05:00,
2013-04-17 11:10:00,63.6,59.7,30.17,SW,226,1.0,1.0,87,0.00,,---,0.14,VWS V14.01,2013-04-17 15:10:00,
2013-04-17 11:15:00,63.4,59.2,30.18,WSW,248,0.0,0.0,86,0.00,,---,0.14,VWS V14.01,2013-04-17 15:15:00,
2013-04-17 11:20:00,63.4,59.5,30.17,WSW,248,0.0,0.0,87,0.00,,---,0.14,VWS V14.01,2013-04-17 15:20:00,
2013-04-17 11:25:00,63.6,59.7,30.17,WNW,282,1.0,1.0,87,0.00,,---,0.14,VWS V14.01,2013-04-17 15:25:00,
2013-04-17 11:30:00,63.9,59.6,30.17,WSW,245,0.0,1.0,86,0.00,,---,0.14,VWS V14.01,2013-04-17 15:30:00,
2013-04-17 11:35:00,64.2,59.3,30.17,SW,228,1.0,1.0,84,0.00,,---,0.14,VWS V14.01,2013-04-17 15:35:00,
2013-04-17 11:40:00,64.3,59.7,30.18,SW,229,0.0,0.0,85,0.00,,---,0.14,VWS V14.01,2013-04-17 15:40:00,
2013-04-17 11:45:00,64.5,59.2,30.17,South,169,1.0,2.0,83,0.00,,---,0.14,VWS V14.01,2013-04-17 15:45:00,
2013-04-17 11:50:00,64.9,59.3,30.17,SSW,194,1.0,2.0,82,0.00,,---,0.14,VWS V14.01,2013-04-17 15:50:00,
2013-04-17 11:55:00,65.6,59.6,30.17,West,271,3.0,4.0,81,0.00,,---,0.14,VWS V14.01,2013-04-17 15:55:00,
2013-04-17 12:00:00,66.1,59.0,30.17,SW,235,2.0,2.0,78,0.00,,---,0.14,VWS V14.01,2013-04-17 16:00:00,
2013-04-17 12:05:00,67.4,60.3,30.16,SW,229,2.0,4.0,78,0.00,,---,0.14,VWS V14.01,2013-04-17 16:05:00,
2013-04-17 12:10:00,68.6,61.1,30.16,West,271,2.0,4.0,77,0.00,,---,0.14,VWS V14.01,2013-04-17 16:10:00,
2013-04-17 12:15:00,69.0,61.1,30.16,West,277,5.0,7.0,76,0.00,,---,0.14,VWS V14.01,2013-04-17 16:15:00,
2013-04-17 12:20:00,69.1,60.5,30.15,WNW,282,3.0,3.0,74,0.00,,---,0.14,VWS V14.01,2013-04-17 16:20:00,
2013-04-17 12:25:00,69.2,60.2,30.15,WNW,284,3.0,3.0,73,0.00,,---,0.14,VWS V14.01,2013-04-17 16:25:00,
2013-04-17 12:30:00,69.1,59.3,30.15,West,280,2.0,3.0,71,0.00,,---,0.14,VWS V14.01,2013-04-17 16:30:00,
2013-04-17 12:35:00,69.0,58.8,30.15,ESE,116,1.0,2.0,70,0.00,,---,0.14,VWS V14.01,2013-04-17 16:35:00,
2013-04-17 12:40:00,69.0,58.8,30.15,ESE,108,0.0,0.0,70,0.00,,---,0.14,VWS V14.01,2013-04-17 16:40:00,
2013-04-17 12:45:00,68.7,58.5,30.15,SW,226,1.0,2.0,70,0.00,,---,0.14,VWS V14.01,2013-04-17 16:45:00,
2013-04-17 12:50:00,68.5,58.7,30.14,SSW,203,2.0,4.0,71,0.00,,---,0.14,VWS V14.01,2013-04-17 16:50:00,
2013-04-17 12:55:00,68.4,59.0,30.14,WNW,295,3.0,3.0,72,0.00,,---,0.14,VWS V14.01,2013-04-17 16:55:00,
2013-04-17 13:00:00,68.2,58.0,30.14,WSW,248,3.0,4.0,70,0.00,,---,0.14,VWS V14.01,2013-04-17 17:00:00,
2013-04-17 13:05:00,68.0,57.5,30.14,SW,236,4.0,4.0,69,0.00,,---,0.14,VWS V14.01,2013-04-17 17:05:00,
2013-04-17 13:10:00,67.6,57.5,30.15,South,186,0.0,0.0,70,0.00,,---,0.14,VWS V14.01,2013-04-17 17:10:00,
2013-04-17 13:15:00,67.4,57.7,30.15,WSW,240,3.0,3.0,71,0.00,,---,0.14,VWS V14.01,2013-04-17 17:15:00,
2013-04-17 13:20:00,66.3,57.0,30.16,WSW,238,2.0,6.0,72,0.00,,---,0.14,VWS V14.01,2013-04-17 17:20:00,
2013-04-17 13:25:00,65.0,56.5,30.16,NNW,334,3.0,9.0,74,0.01,,---,0.15,VWS V14.01,2013-04-17 17:25:00,
2013-04-17 13:30:00,64.2,56.5,30.15,West,273,3.0,4.0,76,0.01,,---,0.15,VWS V14.01,2013-04-17 17:30:00,
2013-04-17 13:35:00,64.1,56.4,30.15,WSW,245,3.0,4.0,76,0.01,,---,0.15,VWS V14.01,2013-04-17 17:35:00,
2013-04-17 13:40:00,64.1,56.0,30.15,East,89,1.0,3.0,75,0.01,,---,0.15,VWS V14.01,2013-04-17 17:40:00,
2013-04-17 13:45:00,64.0,56.7,30.16,WNW,282,1.0,7.0,77,0.01,,---,0.15,VWS V14.01,2013-04-17 17:45:00,
2013-04-17 13:50:00,63.8,57.2,30.16,WNW,298,7.0,7.0,79,0.01,,---,0.15,VWS V14.01,2013-04-17 17:50:00,
2013-04-17 13:55:00,63.6,56.6,30.15,WNW,295,2.0,5.0,78,0.01,,---,0.15,VWS V14.01,2013-04-17 17:55:00,
2013-04-17 14:00:00,63.3,56.7,30.15,SSE,159,1.0,1.0,79,0.01,,---,0.15,VWS V14.01,2013-04-17 18:00:00,
2013-04-17 14:05:00,63.2,57.6,30.14,West,262,1.0,1.0,82,0.01,,---,0.15,VWS V14.01,2013-04-17 18:05:00,
2013-04-17 14:10:00,63.1,58.8,30.15,SSW,208,0.0,2.0,86,0.01,,---,0.15,VWS V14.01,2013-04-17 18:10:00,
2013-04-17 14:15:00,63.0,58.8,30.15,SSE,150,1.0,1.0,86,0.01,,---,0.15,VWS V14.01,2013-04-17 18:15:00,
2013-04-17 14:20:00,62.9,58.0,30.16,West,266,0.0,1.0,84,0.01,,---,0.15,VWS V14.01,2013-04-17 18:20:00,
2013-04-17 14:25:00,63.0,57.8,30.15,WSW,238,2.0,6.0,83,0.01,,---,0.15,VWS V14.01,2013-04-17 18:25:00,
2013-04-17 14:30:00,63.0,57.4,30.15,WSW,238,1.0,5.0,82,0.00,,---,0.15,VWS V14.01,2013-04-17 18:30:00,
2013-04-17 14:35:00,63.2,58.0,30.15,West,276,3.0,4.0,83,0.00,,---,0.15,VWS V14.01,2013-04-17 18:35:00,
2013-04-17 14:40:00,64.2,58.9,30.15,WSW,248,3.0,4.0,83,0.00,,---,0.15,VWS V14.01,2013-04-17 18:40:00,
2013-04-17 14:45:00,65.8,59.1,30.15,WNW,302,2.0,4.0,79,0.00,,---,0.15,VWS V14.01,2013-04-17 18:45:00,
2013-04-17 14:50:00,66.2,58.8,30.14,WSW,240,4.0,5.0,77,0.00,,---,0.15,VWS V14.01,2013-04-17 18:50:00,
2013-04-17 14:55:00,67.3,58.7,30.14,WNW,295,0.0,2.0,74,0.00,,---,0.15,VWS V14.01,2013-04-17 18:55:00,
2013-04-17 15:00:00,68.5,58.7,30.14,East,88,1.0,2.0,71,0.00,,---,0.15,VWS V14.01,2013-04-17 19:00:00,
2013-04-17 15:05:00,69.6,59.4,30.13,West,281,1.0,2.0,70,0.00,,---,0.15,VWS V14.01,2013-04-17 19:05:00,
2013-04-17 15:10:00,70.2,58.7,30.13,NW,309,1.0,3.0,67,0.00,,---,0.15,VWS V14.01,2013-04-17 19:10:00,
2013-04-17 15:15:00,70.9,60.2,30.12,West,269,6.0,7.0,69,0.00,,---,0.15,VWS V14.01,2013-04-17 19:15:00,
2013-04-17 15:20:00,70.7,57.5,30.12,NW,305,2.0,4.0,63,0.00,,---,0.15,VWS V14.01,2013-04-17 19:20:00,
2013-04-17 15:25:00,71.3,59.8,30.12,WNW,289,5.0,8.0,67,0.00,,---,0.15,VWS V14.01,2013-04-17 19:25:00,
2013-04-17 15:30:00,71.3,56.7,30.12,NW,313,2.0,6.0,60,0.00,,---,0.15,VWS V14.01,2013-04-17 19:30:00,
2013-04-17 15:35:00,71.4,58.2,30.12,South,187,1.0,2.0,63,0.00,,---,0.15,VWS V14.01,2013-04-17 19:35:00,
2013-04-17 15:40:00,71.8,56.7,30.11,WNW,283,2.0,3.0,59,0.00,,---,0.15,VWS V14.01,2013-04-17 19:40:00,
2013-04-17 15:45:00,71.7,57.1,30.11,WNW,295,2.0,4.0,60,0.00,,---,0.15,VWS V14.01,2013-04-17 19:45:00,
2013-04-17 15:50:00,72.1,57.0,30.10,WSW,250,3.0,5.0,59,0.00,,---,0.15,VWS V14.01,2013-04-17 19:50:00,
2013-04-17 15:55:00,72.2,56.6,30.10,West,260,2.0,5.0,58,0.00,,---,0.15,VWS V14.01,2013-04-17 19:55:00,
2013-04-17 16:00:00,72.3,57.2,30.10,SW,219,2.0,3.0,59,0.00,,---,0.15,VWS V14.01,2013-04-17 20:00:00,
2013-04-17 16:05:00,72.3,58.1,30.11,WNW,299,3.0,4.0,61,0.00,,---,0.15,VWS V14.01,2013-04-17 20:05:00,
2013-04-17 16:10:00,71.0,58.7,30.10,West,280,1.0,3.0,65,0.00,,---,0.15,VWS V14.01,2013-04-17 20:10:00,
2013-04-17 16:15:00,70.3,58.8,30.11,WNW,285,2.0,5.0,67,0.00,,---,0.15,VWS V14.01,2013-04-17 20:15:00,
2013-04-17 16:20:00,69.7,59.5,30.11,West,280,1.0,6.0,70,0.00,,---,0.15,VWS V14.01,2013-04-17 20:20:00,
2013-04-17 16:25:00,69.2,58.6,30.10,NW,313,2.0,5.0,69,0.00,,---,0.15,VWS V14.01,2013-04-17 20:25:00,
2013-04-17 16:30:00,69.4,59.6,30.10,WNW,295,3.0,3.0,71,0.00,,---,0.15,VWS V14.01,2013-04-17 20:30:00,
2013-04-17 16:35:00,69.5,60.5,30.09,SW,217,2.0,2.0,73,0.00,,---,0.15,VWS V14.01,2013-04-17 20:35:00,
2013-04-17 16:40:00,69.6,59.8,30.09,SW,221,1.0,3.0,71,0.00,,---,0.15,VWS V14.01,2013-04-17 20:40:00,
2013-04-17 16:45:00,69.7,59.5,30.08,NW,309,2.0,5.0,70,0.00,,---,0.15,VWS V14.01,2013-04-17 20:45:00,
2013-04-17 16:50:00,70.0,59.0,30.08,WNW,284,5.0,6.0,68,0.00,,---,0.15,VWS V14.01,2013-04-17 20:50:00,
2013-04-17 16:55:00,69.8,58.8,30.08,WNW,284,3.0,8.0,68,0.00,,---,0.15,VWS V14.01,2013-04-17 20:55:00,
2013-04-17 17:00:00,69.6,56.9,30.08,WSW,247,0.0,3.0,64,0.00,,---,0.15,VWS V14.01,2013-04-17 21:00:00,
2013-04-17 17:05:00,69.2,57.0,30.08,West,263,2.0,3.0,65,0.00,,---,0.15,VWS V14.01,2013-04-17 21:05:00,
2013-04-17 17:10:00,68.5,57.5,30.08,WNW,290,2.0,4.0,68,0.00,,---,0.15,VWS V14.01,2013-04-17 21:10:00,
2013-04-17 17:15:00,68.0,57.5,30.08,SE,126,2.0,4.0,69,0.00,,---,0.15,VWS V14.01,2013-04-17 21:15:00,
2013-04-17 17:20:00,68.0,57.9,30.08,SW,218,0.0,0.0,70,0.00,,---,0.15,VWS V14.01,2013-04-17 21:20:00,
2013-04-17 17:25:00,68.1,58.3,30.09,SSW,201,2.0,2.0,71,0.00,,---,0.15,VWS V14.01,2013-04-17 21:25:00,
2013-04-17 17:30:00,68.1,58.0,30.08,WSW,250,2.0,3.0,70,0.00,,---,0.15,VWS V14.01,2013-04-17 21:30:00,
2013-04-17 17:35:00,68.0,58.7,30.08,West,281,1.0,4.0,72,0.00,,---,0.15,VWS V14.01,2013-04-17 21:35:00,
2013-04-17 17:40:00,67.5,58.5,30.09,South,179,2.0,3.0,73,0.00,,---,0.15,VWS V14.01,2013-04-17 21:40:00,
2013-04-17 17:45:00,67.3,58.7,30.09,South,179,3.0,4.0,74,0.00,,---,0.15,VWS V14.01,2013-04-17 21:45:00,
2013-04-17 17:50:00,67.0,58.8,30.09,SSE,157,3.0,4.0,75,0.00,,---,0.15,VWS V14.01,2013-04-17 21:50:00,
2013-04-17 17:55:00,66.8,58.6,30.08,East,94,2.0,2.0,75,0.00,,---,0.15,VWS V14.01,2013-04-17 21:55:00,
2013-04-17 18:00:00,66.9,59.1,30.08,SSW,198,0.0,0.0,76,0.00,,---,0.15,VWS V14.01,2013-04-17 22:00:00,
2013-04-17 18:05:00,67.1,59.3,30.08,South,187,0.0,1.0,76,0.00,,---,0.15,VWS V14.01,2013-04-17 22:05:00,
2013-04-17 18:10:00,67.2,58.6,30.08,South,183,1.0,2.0,74,0.00,,---,0.15,VWS V14.01,2013-04-17 22:10:00,
2013-04-17 18:15:00,67.1,58.9,30.07,SW,215,0.0,1.0,75,0.00,,---,0.15,VWS V14.01,2013-04-17 22:15:00,
2013-04-17 18:20:00,67.1,58.9,30.07,SW,232,0.0,1.0,75,0.00,,---,0.15,VWS V14.01,2013-04-17 22:20:00,
2013-04-17 18:25:00,66.9,58.7,30.07,West,267,0.0,1.0,75,0.00,,---,0.15,VWS V14.01,2013-04-17 22:25:00,
2013-04-17 18:30:00,66.9,59.1,30.07,WSW,255,0.0,0.0,76,0.00,,---,0.15,VWS V14.01,2013-04-17 22:30:00,
2013-04-17 18:35:00,67.0,58.8,30.07,NW,305,1.0,4.0,75,0.00,,---,0.15,VWS V14.01,2013-04-17 22:35:00,
2013-04-17 18:40:00,66.8,58.6,30.07,WNW,292,2.0,2.0,75,0.00,,---,0.15,VWS V14.01,2013-04-17 22:40:00,
2013-04-17 18:45:00,66.8,58.6,30.07,West,280,1.0,1.0,75,0.00,,---,0.15,VWS V14.01,2013-04-17 22:45:00,
2013-04-17 18:50:00,66.7,58.9,30.06,WSW,249,0.0,0.0,76,0.00,,---,0.15,VWS V14.01,2013-04-17 22:50:00,
2013-04-17 18:55:00,66.7,58.9,30.06,WSW,249,0.0,0.0,76,0.00,,---,0.15,VWS V14.01,2013-04-17 22:55:00,
2013-04-17 19:00:00,66.6,59.2,30.06,WSW,249,0.0,0.0,77,0.00,,---,0.15,VWS V14.01,2013-04-17 23:00:00,
2013-04-17 19:05:00,66.6,58.8,30.07,SSW,194,2.0,2.0,76,0.00,,---,0.15,VWS V14.01,2013-04-17 23:05:00,
2013-04-17 19:10:00,66.4,58.2,30.07,SSE,155,0.0,1.0,75,0.00,,---,0.15,VWS V14.01,2013-04-17 23:10:00,
2013-04-17 19:15:00,66.3,57.8,30.07,SSW,210,0.0,2.0,74,0.00,,---,0.15,VWS V14.01,2013-04-17 23:15:00,
2013-04-17 19:20:00,66.2,57.7,30.07,SE,126,0.0,2.0,74,0.00,,---,0.15,VWS V14.01,2013-04-17 23:20:00,
2013-04-17 19:25:00,66.0,57.5,30.07,WNW,292,0.0,3.0,74,0.00,,---,0.15,VWS V14.01,2013-04-17 23:25:00,
2013-04-17 19:30:00,65.9,57.8,30.07,WSW,257,1.0,2.0,75,0.00,,---,0.15,VWS V14.01,2013-04-17 23:30:00,
2013-04-17 19:35:00,65.7,57.6,30.07,WNW,290,0.0,1.0,75,0.00,,---,0.15,VWS V14.01,2013-04-17 23:35:00,
2013-04-17 19:40:00,65.5,57.4,30.07,SSE,153,0.0,1.0,75,0.00,,---,0.15,VWS V14.01,2013-04-17 23:40:00,
2013-04-17 19:45:00,65.4,57.7,30.07,NW,308,1.0,1.0,76,0.00,,---,0.15,VWS V14.01,2013-04-17 23:45:00,
2013-04-17 19:50:00,65.2,57.5,30.08,NE,34,1.0,1.0,76,0.00,,---,0.15,VWS V14.01,2013-04-17 23:50:00,
2013-04-17 19:55:00,65.0,57.6,30.08,West,281,1.0,1.0,77,0.00,,---,0.15,VWS V14.01,2013-04-17 23:55:00,
2013-04-17 20:00:00,64.9,57.5,30.08,West,281,0.0,0.0,77,0.00,,---,0.15,VWS V14.01,2013-04-18 00:00:00,
2013-04-17 20:05:00,64.6,57.6,30.09,WNW,288,2.0,2.0,78,0.00,,---,0.15,VWS V14.01,2013-04-18 00:05:00,
2013-04-17 20:10:00,64.4,57.4,30.08,NNW,342,1.0,2.0,78,0.00,,---,0.15,VWS V14.01,2013-04-18 00:10:00,
2013-04-17 20:15:00,64.1,57.1,30.08,NW,305,0.0,0.0,78,0.00,,---,0.15,VWS V14.01,2013-04-18 00:15:00,
2013-04-17 20:20:00,63.8,56.8,30.09,NW,308,0.0,0.0,78,0.00,,---,0.15,VWS V14.01,2013-04-18 00:20:00,
2013-04-17 20:25:00,63.6,56.3,30.08,NNE,20,0.0,1.0,77,0.00,,---,0.15,VWS V14.01,2013-04-18 00:25:00,
2013-04-17 20:30:00,63.4,56.4,30.08,NNE,22,1.0,2.0,78,0.00,,---,0.15,VWS V14.01,2013-04-18 00:30:00,
2013-04-17 20:35:00,63.0,56.0,30.08,NNE,22,1.0,1.0,78,0.00,,---,0.15,VWS V14.01,2013-04-18 00:35:00,
2013-04-17 20:40:00,62.9,55.6,30.08,NNE,33,0.0,1.0,77,0.00,,---,0.15,VWS V14.01,2013-04-18 00:40:00,
2013-04-17 20:45:00,62.9,55.6,30.09,NNE,32,1.0,1.0,77,0.00,,---,0.15,VWS V14.01,2013-04-18 00:45:00,
2013-04-17 20:50:00,62.9,55.6,30.09,NNE,33,2.0,2.0,77,0.00,,---,0.15,VWS V14.01,2013-04-18 00:50:00,
2013-04-17 20:55:00,62.7,55.0,30.09,NE,46,1.0,1.0,76,0.00,,---,0.15,VWS V14.01,2013-04-18 00:55:00,
2013-04-17 21:00:00,62.7,55.4,30.09,NNE,32,3.0,3.0,77,0.00,,---,0.15,VWS V14.01,2013-04-18 01:00:00,
2013-04-17 21:05:00,62.7,55.4,30.09,NE,36,0.0,2.0,77,0.00,,---,0.15,VWS V14.01,2013-04-18 01:05:00,
2013-04-17 21:10:00,62.8,55.5,30.09,NNW,347,1.0,1.0,77,0.00,,---,0.15,VWS V14.01,2013-04-18 01:10:00,
2013-04-17 21:15:00,63.0,55.3,30.09,NNW,338,1.0,2.0,76,0.00,,---,0.15,VWS V14.01,2013-04-18 01:15:00,
2013-04-17 21:20:00,63.1,55.1,30.09,NE,41,1.0,1.0,75,0.00,,---,0.15,VWS V14.01,2013-04-18 01:20:00,
2013-04-17 21:25:00,63.3,55.2,30.09,North,4,1.0,1.0,75,0.00,,---,0.15,VWS V14.01,2013-04-18 01:25:00,
2013-04-17 21:30:00,63.3,55.6,30.10,NNW,333,0.0,1.0,76,0.00,,---,0.15,VWS V14.01,2013-04-18 01:30:00,
2013-04-17 21:35:00,63.0,55.3,30.10,NNE,25,2.0,2.0,76,0.00,,---,0.15,VWS V14.01,2013-04-18 01:35:00,
2013-04-17 21:40:00,62.5,55.6,30.10,NNE,25,1.0,1.0,78,0.00,,---,0.15,VWS V14.01,2013-04-18 01:40:00,
2013-04-17 21:45:00,62.1,55.2,30.09,NE,39,1.0,1.0,78,0.00,,---,0.15,VWS V14.01,2013-04-18 01:45:00,
2013-04-17 21:50:00,62.1,55.2,30.10,NE,39,0.0,1.0,78,0.00,,---,0.15,VWS V14.01,2013-04-18 01:50:00,
2013-04-17 21:55:00,61.9,55.0,30.09,NE,39,1.0,1.0,78,0.00,,---,0.15,VWS V14.01,2013-04-18 01:55:00,
2013-04-17 22:00:00,61.8,54.9,30.09,NE,46,1.0,2.0,78,0.00,,---,0.15,VWS V14.01,2013-04-18 02:00:00,
2013-04-17 22:05:00,61.9,55.0,30.09,NE,46,1.0,1.0,78,0.00,,---,0.15,VWS V14.01,2013-04-18 02:05:00,
2013-04-17 22:10:00,61.7,54.8,30.09,NE,46,1.0,1.0,78,0.00,,---,0.15,VWS V14.01,2013-04-18 02:10:00,
2013-04-17 22:15:00,61.7,54.8,30.08,NE,46,1.0,1.0,78,0.00,,---,0.15,VWS V14.01,2013-04-18 02:15:00,
2013-04-17 22:20:00,61.7,54.8,30.08,NE,46,1.0,1.0,78,0.00,,---,0.15,VWS V14.01,2013-04-18 02:20:00,
2013-04-17 22:25:00,61.5,54.6,30.08,NE,46,1.0,1.0,78,0.00,,---,0.15,VWS V14.01,2013-04-18 02:25:00,
2013-04-17 22:30:00,61.4,54.5,30.07,NE,46,1.0,1.0,78,0.00,,---,0.15,VWS V14.01,2013-04-18 02:30:00,
2013-04-17 22:35:00,61.4,54.5,30.07,NE,46,1.0,1.0,78,0.00,,---,0.15,VWS V14.01,2013-04-18 02:35:00,
2013-04-17 22:40:00,61.3,54.4,30.07,NE,46,0.0,0.0,78,0.00,,---,0.15,VWS V14.01,2013-04-18 02:40:00,
2013-04-17 22:45:00,61.1,54.5,30.07,NE,47,1.0,1.0,79,0.00,,---,0.15,VWS V14.01,2013-04-18 02:45:00,
2013-04-17 22:50:00,61.1,54.5,30.07,NE,47,0.0,1.0,79,0.00,,---,0.15,VWS V14.01,2013-04-18 02:50:00,
2013-04-17 22:55:00,61.1,54.5,30.07,NE,46,1.0,1.0,79,0.00,,---,0.15,VWS V14.01,2013-04-18 02:55:00,
2013-04-17 23:00:00,61.1,54.2,30.07,NE,47,1.0,1.0,78,0.00,,---,0.15,VWS V14.01,2013-04-18 03:00:00,
2013-04-17 23:05:00,61.1,54.2,30.07,NE,47,1.0,1.0,78,0.00,,---,0.15,VWS V14.01,2013-04-18 03:05:00,
2013-04-17 23:10:00,61.0,54.1,30.07,NE,47,1.0,1.0,78,0.00,,---,0.15,VWS V14.01,2013-04-18 03:10:00,
2013-04-17 23:15:00,61.2,54.3,30.07,NE,47,0.0,0.0,78,0.00,,---,0.15,VWS V14.01,2013-04-18 03:15:00,
2013-04-17 23:20:00,61.3,54.0,30.07,NE,46,0.0,0.0,77,0.00,,---,0.15,VWS V14.01,2013-04-18 03:20:00,
2013-04-17 23:25:00,61.3,54.0,30.07,NE,46,1.0,1.0,77,0.00,,---,0.15,VWS V14.01,2013-04-18 03:25:00,
2013-04-17 23:30:00,61.3,54.4,30.07,NE,47,1.0,1.0,78,0.00,,---,0.15,VWS V14.01,2013-04-18 03:30:00,
2013-04-17 23:35:00,61.1,54.2,30.07,NE,46,1.0,1.0,78,0.00,,---,0.15,VWS V14.01,2013-04-18 03:35:00,
2013-04-17 23:40:00,61.1,54.2,30.07,NE,47,1.0,1.0,78,0.00,,---,0.15,VWS V14.01,2013-04-18 03:40:00,
2013-04-17 23:45:00,61.1,54.2,30.06,NE,46,0.0,1.0,78,0.00,,---,0.15,VWS V14.01,2013-04-18 03:45:00,
2013-04-17 23:50:00,61.2,53.9,30.06,NE,47,0.0,0.0,77,0.00,,---,0.15,VWS V14.01,2013-04-18 03:50:00,
2013-04-17 23:55:00,61.2,53.9,30.06,NE,47,1.0,1.0,77,0.00,,---,0.15,VWS V14.01,2013-04-18 03:55:00,